Location: Unspecified
(41.9031°N, 12.4386°E)
Time: 12:34:00
(UTC+01:00)

ISS - Visible Passes

Search period start: 25 November 2017 00:00
Search period end: 05 December 2017 00:00
Orbit: 401 x 407 km, 51.6° (Epoch: 25 November)

Date Brightness Start Highest point End Pass type
(mag) Time Alt. Az. Time Alt. Az. Time Alt. Az.
25 Nov -0.6 19:14:46 10° SW 19:14:53 11° SW 19:14:53 11° SW visible
26 Nov -2.3 18:22:53 10° SSW 18:25:02 25° SSE 18:25:02 25° SSE visible
27 Nov -1.7 17:31:36 10° SSE 17:33:32 15° SE 17:35:06 11° E visible
27 Nov -1.4 19:06:23 10° WSW 19:07:46 23° WSW 19:07:46 23° WSW visible
28 Nov -3.8 18:14:01 10° SW 18:17:16 67° SE 18:17:44 56° E visible
29 Nov -2.8 17:21:57 10° SSW 17:24:57 34° SE 17:27:37 12° ENE visible
29 Nov -1.7 18:58:23 10° W 19:00:16 25° WNW 19:00:16 25° WNW visible
30 Nov -3.4 18:05:41 10° WSW 18:08:54 54° NNW 18:10:04 33° NNE visible
01 Dec -3.8 17:13:10 10° SW 17:16:27 83° SE 17:19:45 10° ENE visible
01 Dec -1.5 18:50:38 10° WNW 18:52:28 20° NW 18:52:28 20° NW visible
02 Dec -2.4 17:57:41 10° W 18:00:38 29° NNW 18:02:09 20° NNE visible
03 Dec -1.4 18:42:55 10° NW 18:44:26 16° NNW 18:44:26 16° NNW visible
04 Dec -1.9 17:49:54 10° WNW 17:52:24 20° NNW 17:54:02 15° NNE visible
